Regional Weather Roundup
Issued by NWS

Home | Current Version | Previous Version | Graphics & Text | Print | Product List | Glossary Off
Versions: 1 2 3 4 5 6 7 8 9 10 11 12 13 14 15 16 17 18 19 20 21 22 23 24 25 26 27 28 29 30 31 32 33 34 35 36 37 38 39 40 41 42 43 44 45 46 47 48 49 50

000
ASUS43 KDMX 010707
RWRIA

WEATHER ROUNDUP FOR IOWA
NATIONAL WEATHER SERVICE DES MOINES IA
200 AM CDT MON SEP 01 2014

NOTE: "FAIR" INDICATES FEW OR NO CLOUDS BELOW 12,000 FEET WITH NO
SIGNIFICANT WEATHER AND/OR OBSTRUCTIONS TO VISIBILITY.

* - THESE STATIONS ARE NOT NWS STATIONS...THUS NOT UNDER NWS
QUALITY CONTROL.  THEY ALSO DO NOT REPORT WEATHER SUCH
AS PRECIPITATION OR FOG.

IAZ001>003-012>014-020>022-031>034-043>046-010800-
   NORTHWEST IOWA

CITY           SKY/WX    TMP DP  RH WIND       PRES   REMARKS
CARROLL *      CLOUDY    68  66  94 S13       29.70R
CHEROKEE *     CLOUDY    63  63 100 CALM      29.70R
DENISON *      CLOUDY    66  66 100 S3        29.70R
LE MARS *      FOG       64  64 100 S3        29.70R VSB 1/4
ORANGE CITY *  PTCLDY    66  64  94 NW7       29.69S FOG
SHELDON *      CLOUDY    63  63 100 CALM      29.68S FOG
SIOUX CITY     MOCLDY    63  62  97 CALM      29.70R
SPENCER        CLOUDY    64  62  93 S6        29.69R
STORM LAKE *   MOCLDY    63  63 100 S7        29.71R
$$

IAZ055>058-069>071-079>083-090>094-010800-
   SOUTHWEST IOWA

CITY           SKY/WX    TMP DP  RH WIND       PRES   REMARKS
ATLANTIC *     MOCLDY    68  64  88 S14G21    29.74R
AUDUBON *      MOCLDY    70  66  88 S9        29.74R
CLARINDA *     PTCLDY    68  64  88 S14       29.78R
COUNCIL BLFS * CLOUDY    68  68 100 S15G24    29.72R
CRESTON *      MOCLDY    66  66 100 SW16      29.77R
HARLAN  *      MOCLDY    68  66  94 S16G30    29.76R
LAMONI         CLOUDY    68  64  87 S13G26    29.77R
RED OAK *      CLOUDY    68  64  88 S16G23    29.75R
SHENANDOAH *   MOCLDY    70  64  83 S20G26    29.75R
$$

IAZ047>049-059>061-072>074-084-010800-
   CENTRAL IOWA

CITY           SKY/WX    TMP DP  RH WIND       PRES   REMARKS
AMES           CLOUDY    65  65 100 NE5       29.70S
ANKENY *       PTCLDY    66  64  94 CALM      29.70R
CHARITON *     CLOUDY    66  64  94 S14       29.73R
DES MOINES     CLOUDY    68  64  87 W5        29.71R
GRINNELL*      LGT RAIN  64  63  94 E14       29.67F
KNOXVILLE *    CLOUDY    66  63  88 SE9G31    29.64F
MARSHALLTOWN   CLOUDY    65  64  97 E14       29.70F
PELLA *        LGT RAIN  64  64 100 E15G28    29.64F
PERRY *          N/A     66  64  94 CALM      29.72R
$$

IAZ004>006-015-016-023>025-035-036-010800-
   NORTH CENTRAL IOWA

CITY           SKY/WX    TMP DP  RH WIND       PRES   REMARKS
ALGONA *       CLOUDY    66  64  94 S16       29.68F
CLARION *      PTCLDY    64  64 100 SE15      29.68F
ESTHERVILLE    CLOUDY    63  62  97 S7        29.68S
FORT DODGE *   CLOUDY    66  64  94 S8        29.69F
MASON CITY     CLOUDY    63  63 100 S13       29.70F
FOREST CITY *  PTCLDY    63  63 100 S12G17    29.68F
IOWA FALLS *   LGT RAIN  64  63  94 SE12G18   29.71F
$$

IAZ007>011-017>019-026>030-037>042-050>054-066-010800-
   NORTHEAST IOWA

CITY           SKY/WX    TMP DP  RH WIND       PRES   REMARKS
CEDAR RAPIDS   RAIN      65  65 100 E6        29.81F FOG
CHARLES CITY * MOCLDY    64  63  94 S8        29.71R
CLINTON *      CLOUDY    73  70  88 S12       29.80F
DECORAH *      LGT RAIN  64  63  94 SE15G24   29.71F
DUBUQUE        CLOUDY    68  60  75 NW6       29.84S
MONTICELLO *   RAIN      64  64 100 CALM      29.84F
OELWEIN *      LGT RAIN  64  64 100 E21G30    29.67F
WATERLOO       CLOUDY    66  63  90 SE12      29.71R
$$

IAZ064-065-067-068-078-010800-
   EAST CENTRAL IOWA

CITY           SKY/WX    TMP DP  RH WIND       PRES   REMARKS
DAVENPORT      CLOUDY    70  63  78 NW26G41   29.84R
IOWA CITY      LGT RAIN  66  66 100 NE3       29.84F
MT. PLEASANT * HVY RAIN  66  64  94 N17       29.84F
MUSCATINE *    HVY RAIN  66  64  94 NW17G26   29.85R
QUAD CITIES    CLOUDY    75  70  84 S13       29.78F
$$

IAZ062-063-075>077-085>089-095>099-010800-
   SOUTHEAST IOWA

CITY           SKY/WX    TMP DP  RH WIND       PRES   REMARKS
BURLINGTON     LGT RAIN  76  71  85 S10       29.79F
FAIRFIELD *    CLOUDY    66  63  88 CALM      29.82F
FORT MADISON * MOCLDY    79  72  78 W6        29.83R HX  82
KEOKUK *       MOCLDY    77  70  78 SW16      29.80S
OSKALOOSA *    LGT RAIN  66  64  94 E9        29.78F
CENTERVILLE *  PTCLDY    66  66 100 S9        29.79F
OTTUMWA        LGT RAIN  65  64  97 E9        29.79F
WASHINGTON *   LGT RAIN  66  66 100 NE9       29.81F
$$

ABBREVIATIONS USED IN REMARKS
   TC - TEMPERATURES IN CELSIUS
  WCI - WIND CHILL INDEX
   HX - HEAT INDEX
  VSB - VISIBILITY
$$



USA.gov is the U.S. government's official web portal to all federal, state and local government web resources and services.